[[{"header":{"parameterUnit":"m.s-1","parameterCategory":1,"la1":30.2991,"la2":30.254,"lo1":-89.0895,"lo2":-89.0444,"dy":0.0017,"dx":0.0017,"nx":28,"ny":28,"refTime":"2024-09-28T03:00:00:Z","depth":0,"parameterNumber":2,"parameterNumberName":"U-component_of_WINDS"},"data":[0,0,0,0,0,0,0,0,0,0,0,0,0,0,0,0,0,0,0,0,0,0,0,0,0,0,0,0,0,0,0,0,0,0,0,0,0,0,0,0,0,0,0,0,0,0,0,0,0,0,0,0,0,0,0,0,0,0,5.1675,5.1677,0,5.1852,5.1854,5.1856,5.1763,5.1758,5.1754,5.1749,5.1934,5.1943,5.1952,0,0,0,0,0,0,0,0,0,0,0,0,0,5.1259,5.1267,5.1674,5.1677,5.1679,5.1851,5.1854,5.1856,5.1764,5.1758,5.1752,5.1747,5.1931,5.1942,5.1953,0,0,0,0,0,0,0,0,0,0,0,0,0,5.1438,5.127,5.1674,5.1654,5.1653,5.1851,5.1854,5.1857,5.1765,5.1758,5.1751,5.1744,5.1927,5.1941,5.1954,5.2183,0,0,5.1997,5.2003,0,0,0,0,0,0,0,0,5.1428,5.1454,5.1654,5.1655,5.1656,5.1778,5.1775,5.1966,5.1767,5.1723,5.1749,5.1741,5.1888,5.1905,5.1953,5.2192,5.22,5.1998,5.2007,5.2013,5.2017,0,0,0,0,0,0,0,5.1416,5.1445,5.1745,5.1657,5.1658,5.1636,5.1654,5.1811,5.1843,5.1726,5.172,5.1742,5.1887,5.194,5.1957,5.2202,5.1998,5.201,5.2019,5.2025,5.2636,5.2644,0,0,0,0,0,0,5.1404,5.1436,5.1739,5.175,5.1522,5.165,5.1669,5.1746,5.1841,5.1849,5.1748,5.1737,5.192,5.1941,5.1963,5.2237,5.2013,5.2026,5.2034,5.2628,5.2638,5.2646,0,0,0,0,0,0,5.1396,5.1432,5.1732,5.1591,5.1628,5.1664,5.1751,5.1753,5.1806,5.1857,5.1863,5.1796,5.1915,5.1944,5.2129,5.2242,5.2032,5.2045,5.2619,5.2631,5.2642,5.2785,0,0,0,0,0,0,5.1384,5.143,5.1516,5.1594,5.1636,5.1894,5.1758,5.1762,5.183,5.1818,5.1904,5.1912,5.1912,5.2108,5.2143,5.2257,5.2056,5.2609,5.2624,5.2638,5.2771,5.2801,5.2826,0,0,0,0,0,5.137,5.1551,5.1521,5.1558,5.1745,5.1901,5.1925,5.192,5.184,5.1928,5.196,5.1909,5.2224,5.2128,5.2166,5.2286,5.2602,5.262,5.2637,5.2758,5.2795,5.2826,0,0,0,0,0,0,5.1487,5.156,5.1529,5.174,5.1815,5.1885,5.1995,5.1958,5.2058,5.2043,5.2033,5.2053,5.2246,5.2284,5.2176,5.2512,5.2401,5.2427,5.248,5.2515,5.2542,5.2529,5.2068,0,0,0,0,0,5.1537,5.1657,5.1715,5.1896,5.1935,5.1959,5.2027,5.2016,5.2094,5.2125,5.2171,5.2249,5.2365,5.2442,5.2552,5.2776,5.2793,5.2877,5.2905,5.2928,5.295,5.3071,5.3109,5.2704,5.2704,5.2704,0,0,5.1643,5.1698,5.1774,5.1921,5.1977,5.2102,5.1986,5.2123,5.2216,5.2146,5.2323,5.236,5.2446,5.2652,5.2744,5.269,5.3066,5.295,5.2968,5.2978,5.3093,5.3131,5.3165,5.2716,5.2714,5.2712,0,0,5.1898,5.1952,5.2108,5.2167,5.2253,5.2268,5.2306,5.2382,5.2403,5.258,5.253,5.2641,5.2841,5.2904,5.2963,5.3242,5.3199,5.3278,5.3423,5.3541,5.3573,5.3601,5.37,5.3735,5.3301,5.3301,5.3301,0,5.2019,5.2204,5.2193,5.2334,5.24,5.2341,5.25,5.2557,5.2676,5.2724,5.2661,5.291,5.2964,5.3183,5.3251,5.3301,5.3343,5.3268,5.3569,5.3597,5.3623,5.3717,5.3755,5.331,5.3309,5.3308,5.3307,0,5.2347,5.2477,5.2592,5.2707,5.2786,5.2935,5.2948,5.3029,5.3012,5.3033,5.3214,5.3277,5.3398,5.3449,5.3435,5.3667,5.363,5.3569,5.3456,5.3671,5.3759,5.3795,5.3323,5.332,5.3317,5.3315,0,0,5.2683,5.2788,5.2831,5.2882,5.2973,5.3073,5.3219,5.3336,5.3406,5.349,5.3612,5.3783,5.3726,5.3793,5.3784,5.3888,5.4104,5.3813,5.3815,5.3865,5.4363,5.4408,5.445,5.4076,5.4083,5.4088,5.4355,0,5.2944,5.3198,5.3193,5.343,5.3549,5.3494,5.3622,5.3692,5.3716,5.3821,5.3847,5.3968,5.3884,5.3924,5.4024,5.4057,5.4204,5.4037,5.419,5.4196,5.417,5.4497,5.4546,5.4795,5.439,5.4396,5.44,0,5.3283,5.3376,5.3625,5.3697,5.3747,5.3861,5.3967,5.4069,5.4147,5.4157,5.4231,5.4206,5.4355,5.4238,5.4444,5.433,5.4393,5.4418,5.4428,5.4442,5.4311,5.4519,5.4874,5.4912,5.4455,5.445,5.4446,0,5.3502,5.369,5.3862,5.3908,5.3997,5.4078,5.4119,5.419,5.4261,5.4354,5.44,5.451,5.4571,5.4657,5.4663,5.4577,5.487,5.4754,5.4883,5.4883,5.4947,5.4942,5.5316,5.4988,5.4987,5.4986,5.4986,0,5.3794,5.3948,5.3962,5.4068,5.4239,5.4231,5.4401,5.4434,5.4498,5.461,5.457,5.4676,5.4678,5.4786,5.4792,5.4961,5.4989,5.5001,5.5001,5.5005,5.5003,5.5045,5.5028,5.4996,5.4994,5.4992,5.4991,0,5.4068,5.4083,5.4267,5.4336,5.4357,5.448,5.4538,5.464,5.4659,5.4802,5.4835,5.4867,5.4992,5.5006,5.5154,5.5157,5.5361,5.5342,5.5334,5.5331,5.5459,5.5446,5.5873,5.5928,5.5564,5.5567,5.557,0,5.4253,5.437,5.4451,5.4522,5.4567,5.4683,5.4754,5.4752,5.4828,5.4925,5.5015,5.5136,5.5233,5.5437,5.5473,5.5586,5.5569,5.5711,5.5586,5.5586,5.5571,5.5563,5.5575,5.5735,5.5739,5.5742,5.5745,0,5.4581,5.4582,5.4686,5.4792,5.4878,5.4962,5.5041,5.5102,5.5109,5.5196,5.5323,5.5398,5.5547,5.5669,5.5779,5.5822,5.5786,5.5784,5.5819,5.5824,5.5815,5.5821,5.5399,5.5774,5.5771,5.5769,5.5767,5.5766,5.4816,5.4917,5.4989,5.5105,5.5164,5.5238,5.5336,5.5367,5.5473,5.5593,5.5585,5.5726,5.58,5.5944,5.5995,5.6105,5.6059,5.611,5.6123,5.6136,5.6149,5.5797,5.6126,5.6125,5.6124,5.6123,5.6123,0,5.5141,5.5184,5.5291,5.5401,5.5493,5.5449,5.5534,5.5613,5.5737,5.5809,5.5905,5.6051,5.6168,5.6214,5.6328,5.6408,5.6394,5.6438,5.6432,5.6442,5.6185,5.6142,5.6447,5.6447,5.6447,5.6447,5.6447,5.6447,5.5321,5.5488,5.5498,5.5695,5.5737,5.5873,5.5925,5.5994,5.6051,5.6215,5.6312,5.634,5.6402,5.652,5.6626,5.6636,5.668,5.6732,5.6735,5.6493,5.6461,5.6429,5.6389,5.6741,5.6742,5.6983,5.6985,5.6987]},{"header":{"parameterUnit":"m.s-1","parameterCategory":1,"la1":30.2991,"la2":30.254,"lo1":-89.0895,"lo2":-89.0444,"dy":0.0017,"dx":0.0017,"nx":28,"ny":28,"refTime":"2024-09-28T03:00:00:Z","depth":0,"parameterNumber":3,"parameterNumberName":"V-component_of_WINDS"},"data":[0,0,0,0,0,0,0,0,0,0,0,0,0,0,0,0,0,0,0,0,0,0,0,0,0,0,0,0,0,0,0,0,0,0,0,0,0,0,0,0,0,0,0,0,0,0,0,0,0,0,0,0,0,0,0,0,0,0,1.0502,1.0502,0,1.0522,1.0522,1.0522,1.0535,1.0535,1.0535,1.0535,1.0555,1.0556,1.0556,0,0,0,0,0,0,0,0,0,0,0,0,0,1.0473,1.0474,1.0502,1.0502,1.0502,1.0522,1.0522,1.0522,1.0535,1.0535,1.0535,1.0535,1.0555,1.0555,1.0556,0,0,0,0,0,0,0,0,0,0,0,0,0,1.0489,1.0474,1.0502,1.0511,1.0512,1.0522,1.0522,1.0523,1.0535,1.0535,1.0535,1.0535,1.0555,1.0555,1.0556,1.0559,0,0,1.0558,1.0559,0,0,0,0,0,0,0,0,1.0488,1.049,1.0509,1.051,1.0511,1.0526,1.052,1.0535,1.0534,1.0526,1.0535,1.0535,1.0545,1.0547,1.055,1.056,1.0561,1.0558,1.0559,1.0559,1.0559,0,0,0,0,0,0,0,1.0487,1.0489,1.051,1.051,1.0511,1.0514,1.0516,1.0523,1.0535,1.0527,1.0528,1.053,1.0546,1.055,1.0551,1.0561,1.0558,1.0559,1.0559,1.056,1.0573,1.0573,0,0,0,0,0,0,1.0484,1.0488,1.0509,1.051,1.05,1.0514,1.0517,1.0521,1.0535,1.0537,1.053,1.053,1.0548,1.055,1.0552,1.0555,1.0559,1.056,1.056,1.0573,1.0573,1.0573,0,0,0,0,0,0,1.0484,1.0486,1.0508,1.05,1.0503,1.0514,1.0519,1.0521,1.0525,1.0537,1.0539,1.0531,1.0548,1.0551,1.0557,1.0556,1.056,1.0561,1.0573,1.0573,1.0573,1.0563,0,0,0,0,0,0,1.0483,1.0486,1.0487,1.0499,1.0503,1.0513,1.0519,1.0522,1.0526,1.0527,1.0539,1.0541,1.0549,1.0556,1.0558,1.0557,1.0561,1.0573,1.0573,1.0573,1.0563,1.0562,1.0561,0,0,0,0,0,1.0482,1.0484,1.0487,1.049,1.0505,1.0513,1.0515,1.0524,1.0526,1.0528,1.0535,1.0541,1.0556,1.0556,1.0558,1.0558,1.0573,1.0573,1.0573,1.0564,1.0562,1.0562,0,0,0,0,0,0,1.0472,1.0486,1.049,1.0496,1.0503,1.0515,1.0518,1.0523,1.053,1.053,1.0541,1.0543,1.0548,1.0554,1.0554,1.0561,1.0565,1.0565,1.0557,1.0556,1.0556,1.0554,1.0562,0,0,0,0,0,1.047,1.0476,1.0488,1.0492,1.0495,1.0506,1.051,1.0516,1.0524,1.0527,1.0535,1.0543,1.0549,1.0553,1.056,1.0564,1.0566,1.0565,1.0564,1.0563,1.0563,1.0565,1.0565,1.0572,1.0572,1.0572,0,0,1.0467,1.0475,1.0478,1.049,1.0497,1.0502,1.0508,1.0514,1.0518,1.0528,1.0534,1.054,1.0549,1.0554,1.0557,1.0559,1.0562,1.0563,1.0562,1.0563,1.0565,1.0564,1.0564,1.0572,1.0572,1.0572,0,0,1.0464,1.0471,1.0475,1.0481,1.0491,1.0497,1.0498,1.051,1.0514,1.052,1.0527,1.0532,1.0543,1.0549,1.0554,1.0552,1.0557,1.0553,1.0549,1.0551,1.055,1.055,1.0549,1.0548,1.0553,1.0553,1.0553,0,1.0459,1.0467,1.0476,1.0481,1.0486,1.0495,1.0498,1.0504,1.0515,1.0518,1.0521,1.0534,1.0541,1.0547,1.0546,1.055,1.0551,1.0552,1.055,1.0549,1.0549,1.0548,1.0548,1.0553,1.0553,1.0553,1.0553,0,1.046,1.0466,1.0468,1.0478,1.0483,1.0488,1.0497,1.0501,1.0506,1.0512,1.0518,1.0526,1.0534,1.0536,1.0541,1.0543,1.0544,1.0548,1.0552,1.0548,1.0547,1.0547,1.0552,1.0552,1.0553,1.0553,0,0,1.0452,1.0467,1.0467,1.0472,1.0482,1.0487,1.0491,1.0499,1.0502,1.0509,1.0513,1.0521,1.0525,1.053,1.0536,1.0537,1.0534,1.0541,1.0541,1.0539,1.0536,1.0533,1.0532,1.0538,1.0538,1.0538,1.0535,0,1.0451,1.0459,1.0467,1.0472,1.0477,1.0485,1.0489,1.0496,1.0501,1.0506,1.0513,1.0518,1.0523,1.0526,1.0528,1.0534,1.0534,1.0535,1.0541,1.0541,1.0538,1.0532,1.0529,1.0525,1.0535,1.0535,1.0535,0,1.045,1.0457,1.0463,1.0472,1.0474,1.0478,1.0485,1.049,1.0497,1.0501,1.0506,1.0512,1.0517,1.052,1.0526,1.0526,1.0529,1.0533,1.0533,1.0534,1.0538,1.0532,1.0525,1.0524,1.0534,1.0534,1.0534,0,1.0443,1.0453,1.0458,1.0462,1.0473,1.0475,1.048,1.0487,1.0491,1.0497,1.05,1.0506,1.051,1.0515,1.0522,1.0524,1.0527,1.0531,1.053,1.053,1.0531,1.053,1.0523,1.0533,1.0533,1.0533,1.0533,0,1.0441,1.0444,1.0455,1.0458,1.0461,1.047,1.0473,1.0478,1.0485,1.0489,1.0496,1.0499,1.0509,1.0513,1.0519,1.0523,1.0524,1.0527,1.0529,1.0527,1.0526,1.0529,1.0529,1.0533,1.0533,1.0533,1.0533,0,1.0433,1.0441,1.0447,1.0456,1.0459,1.0461,1.0469,1.0472,1.0478,1.0483,1.0484,1.0493,1.0498,1.0506,1.0514,1.0518,1.052,1.0523,1.0518,1.0519,1.0517,1.0517,1.0511,1.051,1.052,1.052,1.052,0,1.0431,1.0434,1.0444,1.0447,1.0451,1.0456,1.046,1.0468,1.0471,1.0479,1.0481,1.0487,1.0492,1.05,1.0507,1.0513,1.0515,1.0513,1.0516,1.0514,1.0515,1.0514,1.0514,1.0512,1.0512,1.0512,1.0512,0,1.0427,1.043,1.0435,1.0441,1.0445,1.0451,1.0456,1.0458,1.0467,1.0471,1.0476,1.048,1.0488,1.0493,1.05,1.0504,1.0509,1.051,1.051,1.0508,1.0505,1.0506,1.0515,1.0511,1.0511,1.0511,1.0511,1.0511,1.0422,1.0424,1.0431,1.0436,1.0441,1.0446,1.0449,1.0455,1.0459,1.0466,1.047,1.0475,1.0482,1.0491,1.0495,1.0499,1.0501,1.0501,1.0501,1.0501,1.05,1.0504,1.05,1.05,1.05,1.05,1.05,0,1.0417,1.0422,1.0426,1.0434,1.0437,1.0442,1.0448,1.0451,1.0455,1.0461,1.0465,1.0471,1.0476,1.0483,1.0488,1.049,1.0492,1.0491,1.0491,1.0492,1.0498,1.0497,1.0489,1.0489,1.0489,1.0489,1.0489,1.0489,1.0415,1.0419,1.0423,1.0429,1.0434,1.0438,1.0441,1.0446,1.045,1.0456,1.046,1.0465,1.0471,1.0476,1.0481,1.0483,1.0484,1.0482,1.0485,1.049,1.0491,1.0492,1.0492,1.0483,1.0483,1.0478,1.0478,1.0478]}]]